Location: Az?znagar
(16.8373°N, 80.5091°E)
Time: 10:56:52
(UTC+00:00)

Hubble Space Telescope - Pass Details

Date: 04 December 2021
Orbit: 534 x 538 km, 28.5° (Epoch: 16 January)

Event Time Altitude Azimuth Distance (km) Brightness Sun altitude
Exits shadow 00:21:25 - 304° (WNW) 1,838 2.8 -7.8°
Reaches altitude 10° 00:21:35 10° 304° (NW) 1,772 2.8 -7.7°
Maximum altitude 00:25:35 53° 22° (NNE) 655 1.2 -6.8°
Drops below altitude 10° 00:29:36 10° 99° (E) 1,773 5.1 -6.0°
Sets 00:31:54 0° 104° (ESE) 2,663 6.8 -5.4°
